Pleasanton, CA

5:47 PM PST on January 24, 2017 (GMT -0800)
Livermore Municipal

Weather History for KLVK - May, 2012

Change the Weather History Date:

Thursday, May 3, 2012

  Actual Average Record
Temperature  
Mean Temperature 58 °F 60 °F  
Max Temperature 65 °F 73 °F 93 °F (2013)
Min Temperature 50 °F 48 °F 33 °F (1968)
Degree Days  
Heating Degree Days 7 5  
Month to date heating degree days 23 17  
Since 1 July heating degree days 2506 2639  
Cooling Degree Days 0 1  
Month to date cooling degree days 0 3  
Year to date cooling degree days 27 12  
Growing Degree Days 7 (Base 50)    
Moisture  
Dew Point 49 °F    
Average Humidity 75    
Maximum Humidity 93    
Minimum Humidity 57    
Precipitation  
Precipitation 0.03 in 0.03 in 0.44 in (2003)
Month to date precipitation 0.03 0.09  
Year to date precipitation 6.98 9.33  
Since 1 July precipitation 8.89  
Sea Level Pressure  
Sea Level Pressure 30.04 in    
Wind  
Wind Speed 9 mph (WSW)    
Max Wind Speed 15 mph    
Max Gust Speed 20 mph    
Visibility 10 miles    
Events Rain    
T = Trace of Precipitation, MM = Missing Value Source: NWS Daily Summary

Daily Weather History Graph

Daily Weather History Graph

Search for Another Location

Airport or City:

Trip Planner

Search our weather history database for the weather conditions in past years. The results will help you decide how hot, cold, wet, or windy it might be!

Date:

Astronomy

May. 03, 2012 Rise Set
Actual Time 6:08 AM PDT 7:59 PM PDT
Civil Twilight 5:40 AM PDT 8:28 PM PDT
Nautical Twilight 5:05 AM PDT 9:02 PM PDT
Astronomical Twilight 4:29 AM PDT 9:39 PM PDT
Moon 5:32 PM PDT (5/3) 4:13 AM PDT (5/3)
Length of Visible Light 14h 48m
Length of Day
13h 51m
Waxing Gibbous, 92% of the Moon is Illuminated
May 3
Waxing Gibbous
May 5
Full
May 12
Last Quarter
May 20
New
May 28
First Quarter

Hourly Weather History & Observations

Time (PDT) Temp. Dew Point Humidity Pressure Visibility Wind Dir Wind Speed Gust Speed Precip Events Conditions
12:53 AM 50.0 °F 43.0 °F 77% 29.99 in 10.0 mi West 11.5 mph - N/A   Partly Cloudy
1:53 AM 50.0 °F 43.0 °F 77% 29.97 in 10.0 mi SW 4.6 mph - N/A   Clear
2:53 AM 50.0 °F 43.0 °F 77% 29.97 in 10.0 mi SW 8.1 mph - N/A   Partly Cloudy
3:53 AM 50.0 °F 44.1 °F 80% 29.96 in 10.0 mi WSW 4.6 mph - N/A   Scattered Clouds
4:53 AM 50.0 °F 43.0 °F 77% 29.97 in 10.0 mi WSW 8.1 mph - N/A   Scattered Clouds
6:53 AM 50.0 °F 43.0 °F 77% 29.98 in 10.0 mi WSW 10.4 mph - N/A   Clear
7:53 AM 52.0 °F 43.0 °F 71% 30.01 in 10.0 mi WSW 8.1 mph - N/A   Mostly Cloudy
8:16 AM 53.6 °F 42.8 °F 67% 30.01 in 10.0 mi WSW 10.4 mph - N/A   Overcast
8:24 AM 53.6 °F 42.8 °F 67% 30.01 in 10.0 mi WSW 9.2 mph - N/A   Mostly Cloudy
8:53 AM - - N/A% 30.02 in - WSW 10.4 mph - N/A   Mostly Cloudy
9:53 AM 57.0 °F 44.1 °F 62% 30.04 in 10.0 mi SW 10.4 mph - N/A   Mostly Cloudy
10:53 AM 59.0 °F 45.0 °F 60% 30.06 in 10.0 mi SSW 5.8 mph - N/A   Mostly Cloudy
11:53 AM 62.1 °F 48.0 °F 60% 30.05 in 10.0 mi WSW 15.0 mph - N/A   Mostly Cloudy
12:26 PM 62.6 °F 48.2 °F 59% 30.06 in 10.0 mi SSW 9.2 mph - N/A   Overcast
12:30 PM 60.8 °F 46.4 °F 59% 30.06 in 10.0 mi WSW 10.4 mph - N/A   Mostly Cloudy
12:53 PM 63.0 °F 48.0 °F 58% 30.06 in 10.0 mi SSW 11.5 mph - N/A   Mostly Cloudy
1:53 PM 61.0 °F 52.0 °F 72% 30.06 in 10.0 mi WSW 8.1 mph - 0.02 in   Mostly Cloudy
2:53 PM 62.1 °F 52.0 °F 70% 30.05 in 10.0 mi WSW 10.4 mph - 0.00 in   Mostly Cloudy
3:00 PM 62.6 °F 51.8 °F 68% 30.05 in 10.0 mi WSW 8.1 mph - N/A   Mostly Cloudy
3:53 PM 64.0 °F 50.0 °F 60% 30.04 in 10.0 mi West 11.5 mph - N/A   Overcast
4:53 PM 62.1 °F 50.0 °F 65% 30.04 in 10.0 mi SW 15.0 mph - N/A   Overcast
5:34 PM 62.6 °F 50.0 °F 63% 30.04 in 10.0 mi SW 10.4 mph - N/A   Mostly Cloudy
5:53 PM 63.0 °F 50.0 °F 63% 30.04 in 10.0 mi WSW 9.2 mph - N/A   Mostly Cloudy
6:53 PM 62.1 °F 51.1 °F 67% 30.05 in 10.0 mi West 8.1 mph - N/A   Mostly Cloudy
7:53 PM 59.0 °F 52.0 °F 78% 30.06 in 10.0 mi WNW 8.1 mph - N/A   Overcast
8:53 PM 57.9 °F 53.1 °F 84% 30.06 in 10.0 mi NW 5.8 mph - N/A   Overcast
9:08 PM 57.2 °F 53.6 °F 88% 30.07 in 10.0 mi WNW 6.9 mph - N/A   Overcast
9:26 PM 57.2 °F 53.6 °F 88% 30.07 in 10.0 mi NW 6.9 mph - N/A   Overcast
9:53 PM 57.0 °F 55.0 °F 93% 30.08 in 8.0 mi WNW 6.9 mph - 0.00 in Rain Light Rain
10:13 PM 57.2 °F 53.6 °F 88% 30.08 in 10.0 mi WNW 9.2 mph - 0.00 in   Overcast
10:53 PM 55.9 °F 54.0 °F 93% 30.08 in 10.0 mi West 8.1 mph - 0.00 in   Overcast
11:21 PM 57.2 °F 53.6 °F 88% 30.09 in 10.0 mi West 6.9 mph - N/A   Overcast
11:51 PM 57.2 °F 53.6 °F 88% 30.09 in 10.0 mi WNW 9.2 mph - N/A   Overcast
11:53 PM 55.9 °F 53.1 °F 90% 30.09 in 10.0 mi West 10.4 mph - N/A   Overcast